CW5619 Weather Reports


Display with metric or nautical units.
time (UTC)temp
F
wind
direction
speed
MPH
gust
MPH
rain 1hr
in
rain 24hr
in
rain mn
in
humidity
%
barometer
mb
20260506212404 82 352 5.0 12.0 0.00 0.00 0.00 20 1014.0
20260506210903 82 356 2.0 10.0 0.00 0.00 0.00 21 1014.2
20260506210403 81 175 1.0 12.0 0.00 0.00 0.00 22 1014.3
20260506205903 81 20 3.0 12.0 0.00 0.00 0.00 21 1014.3
20260506204903 80 202 3.0 8.0 0.00 0.00 0.00 23 1014.3
20260506204403 80 213 2.0 9.0 0.00 0.00 0.00 23 1014.4
20260506203903 80 199 2.0 9.0 0.00 0.00 0.00 24 1014.5
20260506203403 80 274 3.0 8.0 0.00 0.00 0.00 22 1014.5
20260506202903 81 211 3.0 8.0 0.00 0.00 0.00 22 1014.6
20260506202404 80 227 5.0 8.0 0.00 0.00 0.00 23 1014.6
20260506201903 80 280 2.0 8.0 0.00 0.00 0.00 24 1014.6
20260506201403 79 226 3.0 9.0 0.00 0.00 0.00 24 1014.7
20260506200903 80 232 5.0 10.0 0.00 0.00 0.00 23 1014.7
20260506200403 80 213 3.0 10.0 0.00 0.00 0.00 24 1014.8
20260506195903 78 190 2.0 10.0 0.00 0.00 0.00 24 1014.9
20260506195403 78 210 2.0 10.0 0.00 0.00 0.00 25 1014.8
20260506194903 79 233 2.0 6.0 0.00 0.00 0.00 25 1014.9
20260506194404 78 255 1.0 6.0 0.00 0.00 0.00 24 1015.0
20260506193903 80 46 2.0 8.0 0.00 0.00 0.00 25 1015.1
20260506193403 79 306 3.0 8.0 0.00 0.00 0.00 24 1015.1
20260506192904 77 211 3.0 9.0 0.00 0.00 0.00 25 1015.1
20260506192404 77 321 3.0 10.0 0.00 0.00 0.00 25 1015.3
20260506191403 78 21 2.0 5.0 0.00 0.00 0.00 26 1015.4
20260506190903 77 199 1.0 6.0 0.00 0.00 0.00 26 1015.4
20260506185403 76 207 3.0 8.0 0.00 0.00 0.00 26 1015.5
20260506184903 76 229 3.0 7.0 0.00 0.00 0.00 28 1015.7
20260506184403 74 245 1.0 5.0 0.00 0.00 0.00 29 1015.7
20260506183904 75 144 2.0 10.0 0.00 0.00 0.00 28 1015.8
20260506183403 76 218 4.0 10.0 0.00 0.00 0.00 27 1015.8
20260506182903 76 246 2.0 7.0 0.00 0.00 0.00 30 1015.9
20260506181903 75 40 2.0 5.0 0.00 0.00 0.00 29 1016.1
20260506181404 74 231 3.0 6.0 0.00 0.00 0.00 30 1016.1
20260506180904 75 208 3.0 6.0 0.00 0.00 0.00 31 1016.2
20260506180403 73 277 1.0 7.0 0.00 0.00 0.00 31 1016.3
20260506175903 75 305 2.0 7.0 0.00 0.00 0.00 30 1016.3
20260506175403 73 296 2.0 7.0 0.00 0.00 0.00 32 1016.3
20260506174404 73 131 2.0 7.0 0.00 0.00 0.00 31 1016.1
20260506173403 73 9 2.0 6.0 0.00 0.00 0.00 33 1016.2
20260506172903 73 277 2.0 3.0 0.00 0.00 0.00 33 1016.2
20260506171904 73 232 1.0 6.0 0.00 0.00 0.00 33 1016.2
20260506171403 72 235 1.0 5.0 0.00 0.00 0.00 33 1016.2
20260506170903 72 304 2.0 3.0 0.00 0.00 0.00 34 1016.3
20260506170404 71 79 1.0 6.0 0.00 0.00 0.00 34 1016.3
20260506165403 72 225 2.0 3.0 0.00 0.00 0.00 36 1016.3
20260506164903 71 281 1.0 3.0 0.00 0.00 0.00 35 1016.2
20260506164403 69 9 0.0 5.0 0.00 0.00 0.00 37 1016.2
20260506163903 69 235 1.0 5.0 0.00 0.00 0.00 38 1016.2
20260506162903 70 32 1.0 3.0 0.00 0.00 0.00 35 1016.2
20260506162403 70 307 2.0 3.0 0.00 0.00 0.00 37 1016.2
20260506161903 69 35 1.0 3.0 0.00 0.00 0.00 38 1016.1
20260506161403 68 341 1.0 3.0 0.00 0.00 0.00 39 1016.1
20260506160903 68 9 1.0 3.0 0.00 0.00 0.00 39 1016.1
20260506160403 68 91 2.0 3.0 0.00 0.00 0.00 40 1016.1
20260506155903 67 79 1.0 5.0 0.00 0.00 0.00 41 1016.1
20260506155403 67 209 1.0 5.0 0.00 0.00 0.00 42 1016.0
20260506154903 67 71 2.0 3.0 0.00 0.00 0.00 42 1016.0
20260506154404 66 274 0.0 3.0 0.00 0.00 0.00 43 1015.9
20260506153904 66 31 2.0 3.0 0.00 0.00 0.00 43 1016.0
20260506153403 65 191 1.0 3.0 0.00 0.00 0.00 45 1016.1
20260506152903 65 56 2.0 3.0 0.00 0.00 0.00 49 1016.1
20260506151404 64 237 1.0 3.0 0.00 0.00 0.00 48 1016.1
20260506150903 63 131 1.0 3.0 0.00 0.00 0.00 49 1016.1
20260506150403 63 235 1.0 3.0 0.00 0.00 0.00 50 1016.1
20260506145903 63 107 0.0 2.0 0.00 0.00 0.00 50 1016.1
20260506144903 62 112 1.0 3.0 0.00 0.00 0.00 52 1016.0
20260506144403 62 142 1.0 3.0 0.00 0.00 0.00 52 1016.0
20260506143904 61 106 1.0 3.0 0.00 0.00 0.00 52 1016.0
20260506143403 61 131 1.0 3.0 0.00 0.00 0.00 52 1016.0
20260506142904 61 110 1.0 3.0 0.00 0.00 0.00 53 1016.0
20260506142403 60 151 1.0 3.0 0.00 0.00 0.00 53 1016.1
20260506141904 59 79 1.0 3.0 0.00 0.00 0.00 54 1016.0
20260506141403 59 127 1.0 3.0 0.00 0.00 0.00 55 1016.1
20260506140903 58 104 2.0 3.0 0.00 0.00 0.00 56 1016.0
20260506140403 58 105 1.0 3.0 0.00 0.00 0.00 57 1015.9
20260506135903 58 164 1.0 2.0 0.00 0.00 0.00 58 1015.9
20260506135403 58 107 1.0 3.0 0.00 0.00 0.00 58 1015.9
20260506134903 57 117 1.0 3.0 0.00 0.00 0.00 59 1015.9
20260506134403 57 78 0.0 1.0 0.00 0.00 0.00 62 1015.9
20260506133903 56 76 0.0 0.0 0.00 0.00 0.00 65 1015.8
20260506133403 55 75 0.0 0.0 0.00 0.00 0.00 66 1015.8
20260506132903 55 75 0.0 0.0 0.00 0.00 0.00 68 1015.8
20260506132405 54 75 0.0 0.0 0.00 0.00 0.00 68 1015.6
20260506131403 53 120 0.0 0.0 0.00 0.00 0.00 70 1015.4
20260506130903 52 125 0.0 1.0 0.00 0.00 0.00 72 1015.4
20260506130404 52 141 0.0 1.0 0.00 0.00 0.00 72 1015.2
20260506125903 52 199 0.0 1.0 0.00 0.00 0.00 73 1015.4
20260506125403 52 217 0.0 1.0 0.00 0.00 0.00 73 1015.4
20260506124903 52 217 0.0 0.0 0.00 0.00 0.00 73 1015.3
20260506124404 52 217 0.0 1.0 0.00 0.00 0.00 72 1015.4
20260506123403 53 217 0.0 1.0 0.00 0.00 0.00 72 1015.2
20260506122904 53 217 0.0 1.0 0.00 0.00 0.00 72 1015.2
20260506122403 53 217 0.0 0.0 0.00 0.00 0.00 72 1015.1
20260506121903 53 217 0.0 0.0 0.00 0.00 0.00 71 1015.1
20260506121403 53 217 0.0 0.0 0.00 0.00 0.00 71 1015.1
20260506120903 53 217 0.0 2.0 0.00 0.00 0.00 70 1015.1
20260506120403 54 217 1.0 2.0 0.00 0.00 0.00 69 1015.0
20260506115903 54 355 0.0 0.0 0.00 0.00 0.00 68 1014.9
20260506115403 55 355 0.0 1.0 0.00 0.00 0.00 67 1014.9
20260506114903 55 355 0.0 1.0 0.00 0.00 0.00 66 1014.8
20260506114403 55 355 0.0 3.0 0.00 0.00 0.00 66 1014.8
20260506113903 55 355 0.0 3.0 0.00 0.00 0.00 66 1014.8
20260506112903 55 5 0.0 2.0 0.00 0.00 0.00 66 1014.8
20260506112403 55 5 0.0 2.0 0.00 0.00 0.00 66 1014.7
20260506111904 55 5 0.0 1.0 0.00 0.00 0.00 66 1014.7
20260506111404 55 5 0.0 2.0 0.00 0.00 0.00 66 1014.7
20260506110904 56 5 0.0 2.0 0.00 0.01 0.00 65 1014.6
20260506105904 56 5 1.0 2.0 0.00 0.01 0.00 63 1014.5
20260506105404 57 5 0.0 2.0 0.00 0.01 0.00 63 1014.5
20260506104903 57 348 0.0 3.0 0.00 0.01 0.00 62 1014.5
20260506104403 57 338 1.0 3.0 0.00 0.01 0.00 62 1014.4
20260506103903 57 333 1.0 3.0 0.00 0.02 0.00 62 1014.4
20260506103403 56 349 1.0 2.0 0.00 0.02 0.00 62 1014.3
20260506102905 56 354 1.0 2.0 0.00 0.02 0.00 62 1014.3
20260506102403 56 5 1.0 2.0 0.00 0.02 0.00 62 1014.3
20260506101903 56 6 0.0 1.0 0.00 0.02 0.00 62 1014.2
20260506101403 55 5 0.0 2.0 0.00 0.03 0.00 62 1014.2
20260506100904 55 5 0.0 2.0 0.00 0.03 0.00 63 1014.1
20260506100403 55 5 1.0 1.0 0.00 0.03 0.00 62 1014.2
20260506095903 55 345 0.0 0.0 0.00 0.03 0.00 62 1014.1
20260506094903 55 345 0.0 0.0 0.00 0.03 0.00 61 1014.0
20260506094403 55 345 0.0 0.0 0.00 0.03 0.00 60 1014.0
20260506093903 55 345 0.0 0.0 0.00 0.03 0.00 60 1014.0
20260506093403 55 345 0.0 0.0 0.00 0.03 0.00 60 1014.0
20260506092904 55 345 0.0 0.0 0.00 0.03 0.00 60 1014.0
20260506091404 56 345 0.0 0.0 0.00 0.03 0.00 59 1013.9
20260506090404 56 345 0.0 0.0 0.00 0.03 0.00 58 1013.9
20260506084903 57 345 0.0 0.0 0.00 0.04 0.00 55 1014.1
20260506083903 57 345 0.0 0.0 0.00 0.04 0.00 54 1014.2
20260506083404 57 345 0.0 0.0 0.00 0.04 0.00 54 1014.2
20260506082903 58 345 0.0 0.0 0.00 0.04 0.00 52 1014.2
20260506082404 59 345 0.0 0.0 0.00 0.05 0.00 50 1014.2
20260506081404 59 345 0.0 1.0 0.00 0.06 0.00 47 1014.2
20260506080903 59 345 0.0 1.0 0.00 0.07 0.00 47 1014.2
20260506080403 60 342 0.0 2.0 0.00 0.07 0.00 47 1014.2
20260506073403 60 343 0.0 1.0 0.00 0.09 0.00 48 1014.2
20260506072903 60 343 0.0 1.0 0.00 0.10 0.00 47 1014.2
20260506072404 60 343 0.0 1.0 0.00 0.11 0.00 46 1014.2
20260506071903 60 343 0.0 1.0 0.00 0.11 0.00 46 1014.2
20260506071404 60 348 0.0 1.0 0.00 0.11 0.00 45 1014.2
20260506070903 61 344 0.0 1.0 0.00 0.11 0.00 46 1014.2
20260506062403 63 298 0.0 2.0 0.00 0.15 0.12 40 1013.9
20260506061903 63 296 0.0 2.0 0.00 0.15 0.12 40 1013.9
20260506061403 64 275 0.0 2.0 0.00 0.15 0.12 39 1014.0
20260506060404 64 291 0.0 3.0 0.00 0.15 0.12 38 1013.8
20260506051404 66 247 1.0 3.0 0.00 0.17 0.12 37 1013.6
20260506050904 66 267 1.0 6.0 0.00 0.17 0.12 37 1013.5
20260506050404 66 230 1.0 6.0 0.00 0.17 0.12 37 1013.4
20260506044904 66 239 3.0 7.0 0.00 0.17 0.12 38 1013.3
20260506044403 66 235 2.0 3.0 0.00 0.17 0.12 39 1013.3
20260506043903 66 237 2.0 3.0 0.00 0.17 0.12 39 1013.3
20260506043403 66 233 1.0 3.0 0.00 0.17 0.12 38 1013.2
20260506042403 67 246 1.0 3.0 0.00 0.17 0.12 38 1013.2
20260506041903 67 244 1.0 3.0 0.00 0.18 0.12 38 1013.1
20260506041403 67 243 1.0 2.0 0.00 0.18 0.12 38 1013.1
20260506040904 67 134 0.0 2.0 0.00 0.18 0.12 37 1013.0
20260506040404 67 211 1.0 2.0 0.00 0.19 0.12 37 1012.9
20260506035904 68 219 1.0 3.0 0.00 0.19 0.12 37 1012.5
20260506035403 68 252 1.0 5.0 0.00 0.20 0.12 36 1012.5
20260506034903 68 225 2.0 5.0 0.00 0.21 0.12 37 1012.4
20260506034403 68 242 2.0 8.0 0.00 0.21 0.12 38 1012.3
20260506033904 68 247 3.0 8.0 0.00 0.21 0.12 39 1012.3
20260506033404 68 229 3.0 9.0 0.00 0.21 0.12 39 1012.1
20260506032404 69 211 2.0 7.0 0.00 0.21 0.12 40 1012.0
20260506031904 69 253 2.0 6.0 0.00 0.21 0.12 39 1011.9
20260506030904 69 240 2.0 7.0 0.00 0.21 0.12 36 1011.7
20260506030404 69 232 2.0 6.0 0.00 0.21 0.12 35 1011.6
20260506025904 69 261 2.0 7.0 0.00 0.21 0.12 35 1011.5
20260506025403 69 256 1.0 7.0 0.00 0.21 0.12 35 1011.5
20260506024904 69 235 2.0 8.0 0.00 0.21 0.12 34 1011.4
20260506024403 69 230 3.0 8.0 0.00 0.21 0.12 34 1011.3
20260506023904 70 225 2.0 7.0 0.00 0.21 0.12 34 1011.3
20260506022903 70 224 3.0 10.0 0.00 0.21 0.12 34 1011.1
20260506021903 70 228 3.0 8.0 0.00 0.21 0.12 34 1011.0
20260506021404 70 235 3.0 8.0 0.00 0.21 0.12 33 1010.8
20260506020904 70 231 3.0 12.0 0.00 0.21 0.12 33 1010.7
20260506020403 71 242 3.0 12.0 0.00 0.21 0.12 33 1010.6
20260506015403 71 228 3.0 10.0 0.00 0.22 0.12 31 1010.5
20260506014403 71 240 5.0 12.0 0.00 0.22 0.12 30 1010.4
20260506013904 72 239 5.0 12.0 0.00 0.23 0.12 28 1010.4
20260506013404 72 235 4.0 12.0 0.00 0.23 0.12 28 1010.3
20260506012903 72 241 6.0 12.0 0.00 0.23 0.12 28 1010.3
20260506012404 72 237 6.0 14.0 0.00 0.23 0.12 28 1010.3
20260506011904 73 232 6.0 14.0 0.00 0.23 0.12 28 1010.2
20260506011404 73 236 6.0 14.0 0.00 0.23 0.12 28 1010.2
20260506010403 73 236 6.0 16.0 0.00 0.23 0.12 29 1010.2
20260506005903 73 239 7.0 16.0 0.00 0.23 0.12 29 1010.1
20260506005403 73 230 7.0 16.0 0.00 0.23 0.12 29 1010.1
20260506004403 74 232 5.0 15.0 0.00 0.23 0.12 29 1010.1
20260506003904 74 253 9.0 15.0 0.00 0.23 0.12 28 1010.0
20260506002903 75 229 5.0 14.0 0.00 0.23 0.12 28 1009.9
20260506002404 75 237 5.0 14.0 0.00 0.23 0.12 28 1009.8
20260506001903 76 235 6.0 12.0 0.00 0.23 0.12 26 1009.9
20260506001404 76 236 5.0 17.0 0.00 0.23 0.12 26 1009.7
20260506000904 76 228 7.0 17.0 0.00 0.23 0.12 26 1009.8
20260505235903 77 235 6.0 14.0 0.00 0.23 0.12 26 1009.6
20260505235403 77 239 5.0 14.0 0.00 0.23 0.12 25 1009.6
20260505234903 77 198 5.0 14.0 0.00 0.23 0.12 26 1009.5
20260505234404 77 242 7.0 14.0 0.00 0.23 0.12 26 1009.4
20260505233903 77 233 5.0 15.0 0.00 0.23 0.12 26 1009.4
20260505233403 77 229 6.0 15.0 0.00 0.23 0.12 25 1009.4
20260505232903 78 231 6.0 15.0 0.00 0.23 0.12 25 1009.4
20260505232403 77 222 4.0 14.0 0.00 0.23 0.12 25 1009.3
20260505231903 78 219 6.0 14.0 0.00 0.23 0.12 25 1009.4
20260505231403 78 210 5.0 14.0 0.00 0.23 0.12 25 1009.4
20260505230903 78 237 6.0 12.0 0.00 0.23 0.12 26 1009.4
20260505230403 78 227 4.0 12.0 0.00 0.23 0.12 27 1009.4
20260505225404 78 229 6.0 16.0 0.00 0.23 0.12 26 1009.4
20260505224903 78 227 5.0 12.0 0.00 0.23 0.12 27 1009.4
20260505224403 77 233 4.0 12.0 0.00 0.23 0.12 28 1009.5
20260505223903 76 225 3.0 12.0 0.00 0.23 0.12 27 1009.6
20260505223403 76 231 5.0 14.0 0.00 0.23 0.12 29 1009.8
20260505222904 76 228 6.0 14.0 0.00 0.23 0.12 28 1009.7
20260505222404 76 204 5.0 13.0 0.00 0.23 0.12 28 1009.8
20260505221903 77 243 5.0 14.0 0.00 0.23 0.12 28 1009.9
20260505220903 78 199 3.0 12.0 0.00 0.23 0.12 28 1009.9
20260505220403 78 234 5.0 12.0 0.00 0.23 0.12 28 1009.9
20260505215904 77 263 4.0 12.0 0.00 0.23 0.12 28 1010.0
20260505215403 77 224 5.0 17.0 0.00 0.23 0.12 28 1010.1
20260505214904 78 236 7.0 17.0 0.00 0.23 0.12 28 1010.1
20260505214403 77 246 5.0 10.0 0.00 0.23 0.12 29 1010.1
20260505213404 77 222 4.0 12.0 0.00 0.23 0.12 30 1010.2